This is the latest recevied weather packets stored in our database for station/object G0TRT-13. If no packets are shown the sender has not sent any weather packets the latest 10 day(s).
| Time | Temp. | Humidity | Pressure | Rain* | Wind** | Luminosity | Snow |
|---|---|---|---|---|---|---|---|
| 1777300352 | 22.78° C | 40% | 1023 hPa | 0 mm | - | - | - |
| 1777300053 | 22.78° C | 40% | 1023 hPa | 0 mm | - | - | - |
| 1777299752 | 22.78° C | 38% | 1023.2 hPa | 0 mm | - | - | - |
| 1777299452 | 22.78° C | 41% | 1023.2 hPa | 0 mm | - | - | - |
| 1777299153 | 22.78° C | 37% | 1023.2 hPa | 0 mm | - | - | - |
| 1777298852 | 22.78° C | 39% | 1023.2 hPa | 0 mm | - | - | - |
| 1777298554 | 22.78° C | 38% | 1023.2 hPa | 0 mm | - | - | - |
| 1777298254 | 22.22° C | 38% | 1023.3 hPa | 0 mm | - | - | - |
| 1777297954 | 22.22° C | 38% | 1023.5 hPa | 0 mm | - | - | - |
| 1777297652 | 21.67° C | 36% | 1023.7 hPa | 0 mm | - | - | - |
| 1777297346 | 21.67° C | 36% | 1023.7 hPa | 0 mm | - | - | - |
| 1777297040 | 21.67° C | 36% | 1023.8 hPa | 0 mm | - | - | - |
| 1777296734 | 22.22° C | 37% | 1023.7 hPa | 0 mm | - | - | - |
| 1777296432 | 22.22° C | 38% | 1023.8 hPa | 0 mm | - | - | - |
| 1777296130 | 22.22° C | 39% | 1023.8 hPa | 0 mm | - | - | - |
| 1777295830 | 21.67° C | 37% | 1023.8 hPa | 0 mm | - | - | - |
| 1777295530 | 21.67° C | 39% | 1024 hPa | 0 mm | - | - | - |
| 1777295228 | 21.67° C | 39% | 1024 hPa | 0 mm | - | - | - |
| 1777294928 | 21.67° C | 39% | 1023.9 hPa | 0 mm | - | - | - |
| 1777294628 | 21.11° C | 41% | 1023.9 hPa | 0 mm | - | - | - |
| 1777294328 | 21.67° C | 41% | 1024 hPa | 0 mm | - | - | - |
| 1777294028 | 21.67° C | 39% | 1024 hPa | 0 mm | - | - | - |
| 1777293728 | 21.67° C | 40% | 1024 hPa | 0 mm | - | - | - |
| 1777293426 | 22.22° C | 39% | 1024 hPa | 0 mm | - | - | - |
| 1777293125 | 21.67° C | 42% | 1024.1 hPa | 0 mm | - | - | - |
* Rain latest hour (hover to see other rain measurements)
** Current wind speed in m/s (hover to see current wind gust speed)